Location: Wanzleben
(52.0609°N, 11.4408°E)
Time: 06:19:56
(UTC+00:00)

SL-14 R/B - Pass Details

Date: 18 September 2020
Orbit: 518 x 554 km, 82.4° (Epoch: 18 October)

Event Time Altitude Azimuth Distance (km) Brightness Sun altitude
Rises 19:10:10 0° 355° (N) 2,671 7.3 -17.0°
Reaches altitude 10° 19:12:28 10° 5° (N) 1,781 6.2 -17.3°
Maximum altitude 19:16:02 33° 71° (ENE) 908 4.0 -17.8°
Enters shadow 19:16:08 33° 74° (ENE) 909 4.0 -17.8°
